Location: Aulnoy
(48.8410°N, 3.0967°E)
Time: 23:52:39
(UTC+00:00)

Envisat - Pass Details

Date: 07 March 2024
Orbit: 762 x 764 km, 98.3° (Epoch: 12 April)

Event Time Altitude Azimuth Distance (km) Brightness Sun altitude
Rises 03:14:20 0° 15° (NNE) 3,241 6.8 -29.9°
Reaches altitude 10° 03:16:40 10° 17° (NNE) 2,310 6.0 -29.5°
Enters shadow 03:21:19 70° 58° (ENE) 816 3.2 -28.8°
